Wilmington, OH

6:29 AM EDT on May 24, 2017 (GMT -0400)
Airborne

Weather History for KILN - February, 2013

Change the Weather History Date:

Thursday, February 7, 2013

  Actual Average (KFFO) Record (KFFO)
Temperature  
Mean Temperature 42 °F -  
Max Temperature 55 °F 38 °F 60 °F (2017)
Min Temperature 28 °F 22 °F -5 °F (2007)
Degree Days  
Heating Degree Days 24    
Moisture  
Dew Point 31 °F    
Average Humidity 74    
Maximum Humidity 89    
Minimum Humidity 49    
Precipitation  
Precipitation 0.00 in - - ()
Sea Level Pressure  
Sea Level Pressure 30.10 in    
Wind  
Wind Speed 6 mph (ESE)    
Max Wind Speed 10 mph    
Max Gust Speed -    
Visibility 8 miles    
Events      
Averages and records for this station are not official NWS values.
T = Trace of Precipitation, MM = Missing Value Source: NWS Daily Summary

Daily Weather History Graph

Daily Weather History Graph

Search for Another Location

Airport or City:

Trip Planner

Search our weather history database for the weather conditions in past years. The results will help you decide how hot, cold, wet, or windy it might be!

Date:

Astronomy

Feb. 07, 2013 Rise Set
Actual Time 7:36 AM EST 6:02 PM EST
Civil Twilight 7:08 AM EST 6:30 PM EST
Nautical Twilight 6:36 AM EST 7:02 PM EST
Astronomical Twilight 6:05 AM EST 7:34 PM EST
Moon 5:14 AM EST (2/7) 3:26 PM EST (2/7)
Length of Visible Light 11h 22m
Length of Day
10h 26m
Waning Crescent, 9% of the Moon is Illuminated
Feb 7
Waning Crescent
Feb 10
New
Feb 17
First Quarter
Feb 25
Full
Mar 4
Last Quarter

Hourly Weather History & Observations

Time (EST) Temp. Windchill Dew Point Humidity Pressure Visibility Wind Dir Wind Speed Gust Speed Precip Events Conditions
12:54 AM 28.0 °F 21.7 °F 23.0 °F 81% 30.28 in 6.0 mi ESE 5.8 mph - N/A   Haze
1:54 AM 28.9 °F 23.9 °F 24.1 °F 82% 30.26 in 7.0 mi ESE 4.6 mph - N/A   Clear
2:54 AM 28.9 °F 23.9 °F 25.0 °F 85% 30.25 in 7.0 mi ESE 4.6 mph - N/A   Overcast
3:54 AM 30.0 °F 24.1 °F 26.1 °F 85% 30.24 in 7.0 mi ESE 5.8 mph - N/A   Overcast
4:54 AM 30.0 °F 23.2 °F 26.1 °F 85% 30.23 in 6.0 mi East 6.9 mph - N/A   Mostly Cloudy
5:54 AM 30.0 °F 25.2 °F 26.1 °F 85% 30.24 in 6.0 mi East 4.6 mph - N/A   Overcast
6:54 AM 28.9 °F 21.1 °F 26.1 °F 89% 30.23 in 5.0 mi East 8.1 mph - N/A   Mostly Cloudy
7:54 AM 28.9 °F 22.8 °F 26.1 °F 89% 30.22 in 4.0 mi East 5.8 mph - N/A   Clear
8:54 AM 30.0 °F 21.1 °F 26.1 °F 85% 30.20 in 4.0 mi East 10.4 mph - N/A   Scattered Clouds
9:54 AM 32.0 °F 27.5 °F 28.0 °F 85% 30.20 in 4.0 mi ESE 4.6 mph - N/A   Scattered Clouds
10:54 AM 36.0 °F 29.6 °F 30.0 °F 79% 30.17 in 6.0 mi ESE 8.1 mph - N/A   Haze
11:54 AM 39.0 °F 34.0 °F 32.0 °F 76% 30.15 in 7.0 mi ESE 6.9 mph - N/A   Clear
12:54 PM 45.0 °F 42.6 °F 35.1 °F 68% 30.10 in 10.0 mi SSE 4.6 mph - N/A   Clear
1:54 PM 48.9 °F - 35.1 °F 59% 30.06 in 10.0 mi SE 4.6 mph - N/A   Clear
2:54 PM 50.0 °F - 37.9 °F 63% 30.02 in 10.0 mi East 4.6 mph - N/A   Clear
3:54 PM 55.9 °F - 37.0 °F 49% 30.01 in 10.0 mi Calm Calm - N/A   Clear
4:54 PM 53.1 °F - 39.0 °F 59% 29.98 in 10.0 mi SE 3.5 mph - N/A   Clear
5:54 PM 48.9 °F - 37.9 °F 66% 29.98 in 10.0 mi East 3.5 mph - N/A   Clear
6:54 PM 45.0 °F 40.6 °F 34.0 °F 65% 29.97 in 10.0 mi ESE 8.1 mph - N/A   Clear
7:54 PM 43.0 °F 39.5 °F 33.1 °F 68% 29.96 in 10.0 mi SE 5.8 mph - N/A   Clear
8:54 PM 43.0 °F 38.2 °F 32.0 °F 65% 29.94 in 10.0 mi SE 8.1 mph - N/A   Clear
9:54 PM 42.1 °F 37.7 °F 32.0 °F 67% 29.92 in 10.0 mi SSE 6.9 mph - N/A   Clear
10:54 PM 39.9 °F 35.8 °F 32.0 °F 73% 29.90 in 10.0 mi SSE 5.8 mph - N/A   Clear
11:54 PM 43.0 °F 37.2 °F 33.1 °F 68% 29.87 in 10.0 mi South 10.4 mph - N/A   Mostly Cloudy